Showing default

IRIDIUM 176, 43923

Orbit data source: Space-Track

IRIDIUM 176, 43923 is a payload satellite owned by Iridium (US) in LEO that was launched on Fri, 11 Jan 2019 UTC via an FALCON 9 launch vehicle from the Air Force Western Test Range (AFWTR). Payloads include a variety of satellites, spacecraft, and rockets equipped with specific instruments for various scientific and technological missions. These include communications satellites like Starlink; space stations such as the ISS; scientific satellites like the Hubble; Earth observation satellites from companies like Planet Labs, Umbra, and HawkEye 360; GPS; miniature CubeSats for education and research; and military/defense satellites.

Loading next visibility...
IRIDIUM 176 details
Identifier
43923, 2019-002B
Orbit
LEO
Last TLE update11 hours ago
Origin
Flag of USIridium (US)
ManufacturerNGIS SSG Gilbert
MissionOperational Commercial Communications
Bus & MotorELITEBUS, Unknown motor
Mass860 kg wet, 700 kg dry
Launch date (UTC)
2019-01-11 (6 years ago)
Launch vehicle
FALCON 9
Launch site
Air Force Western Test Range (AFWTR)
Object type
Payload
Rocket body
Debris
Shape & HBRTrap Box + 2 Pan, 9.4 m
Radar Cross Section14.423 m², Large (>1 m²)

Expand to show TLE details & history

TLE from 11 hours ago
0 IRIDIUM 176
1 43923U 19002B   24361.12662627  .00003322  00000-0  52277-3 0  9997
2 43923  86.6108 218.4223 0002850  71.8516 288.3011 14.72249850320085
Epoch: 2024-12-26T03:02Z
Definitive object data (Epoch: 2024-12-26T03:02:20.509Z)
Latitude-0.00007°
Longitude77.72635°
Altitude656.373 km
Speed7.53 km/s
True Right ascension14h 33m 41s
True Declination0° 00' 00"
Sunlit
Object was in daylight at TLE epoch
Visualization TLE readout
Latitude-22.1937°
Longitude76.15233°
Altitude662.471 km
Speed7.525 km/s
Apparent Right ascension16h 22m 05s
Apparent Declination-73° 46' 58"
Sunlit
Object is in daylight
Visualization observer readout
Local Sidereal Time13:43:16
Azimuth168.467° S
Elevation-26.83°
Doppler factor1
Orbital elements
Apogee altitude652.805 km
Perigee altitude648.798 km
Semi-major axis7,028.939 km
Eccentricity0.000285
Inclination86.6108°
RAAN218.4223°
Arg. of periapsis71.8516°
True anomaly288.27009°
Mean anomaly288.3011°
Eccentric anomaly288.2856°
Mean motion3.68306 °/min
BSTAR0.00052277
Orbital period97.74 mins
Loading maneuver chart data...
Loading historical data...
Loading historical data...
Loading historical data...
Loading historical data...
Loading historical data...
Loading historical data...
Loading historical data...

IRIDIUM 176 Visibility forecast

Observer location: undefined°, undefined

Span
Click to sort rows by Start time (UTC) header in descending order
Start Az.
Max El. time (UTC)
Max El. Az.
Max El.
End time (UTC)
End Az.
6 mins2024-12-26 14:35:26.658Z136.456° SSE2024-12-26 14:38:26.658Z82.726° E26.019°2024-12-26 14:41:26.658Z31.101° NE
5 mins2024-12-26 16:14:26.658Z244.296° WSW2024-12-26 16:16:26.658Z279.987° WNW21.463°2024-12-26 16:19:26.658Z327.778° NNW
7 mins2024-12-27 02:27:26.658Z17.779° NNE2024-12-27 02:30:26.658Z82.133° E35.467°2024-12-27 02:34:26.658Z156.072° SSE
|